Preview of NWS' New Version of Forecast
This preview is not operational and should not be used for support decisions.

Regional Weather Roundup (RWR)

Issued by National Weather Service (NWS)

                            
000
ASUS44 KJAN 231910
RWRMS 

MISSISSIPPI HOURLY WEATHER ROUNDUP
NATIONAL WEATHER SERVICE JACKSON MS
200 PM CDT SUN JUN 23 2019

NOTE: "FAIR: INDICATES FEW OR NO CLOUDS BELOW 12,000 FEET WITH NO
SIGNIFICANT WEATHER AND/OR OBSTRUCTIONS TO VISIBILITY.

MSZ001>002-007>008-010>013-018>021-025>028-034>036-232000-
NORTHWEST MISSISSIPPI
  
CITY           SKY/WX    TMP DP  RH WIND       PRES   REMARKS
BATESVILLE     FAIR      88  75  66 S12       29.97S HX  97           
CLARKSDALE     MOSUNNY   93  77  59 S15G21    29.95F HX 107           
GREENWOOD      FAIR      91  74  57 SW14      29.98S HX 100           
GREENVILLE       N/A    N/A N/A N/A MISG      29.94F                  
OLIVE BRANCH   PTSUNNY   90  73  58 S17G25    29.96F HX  98           
OXFORD         FAIR      88  72  58 SW13G25   29.99F HX  94           
TUNICA           N/A     90  73  58 S15G23    29.94F HX  98           
WINONA         MOCLDY    90  74  58 SW10      29.99F HX  98           
$$

MSZ003>006-009-014>017-022>024-029>033-037>039-232000-
NORTHEAST MISSISSIPPI
  
CITY           SKY/WX    TMP DP  RH WIND       PRES   REMARKS
COLUMBUS AFB   FAIR      91  74  56 SW12      30.00F HX 100           
CORINTH        FAIR      90  72  55 S10       29.98F HX  96           
GOLDN TRIANGLE PTSUNNY   89  74  60 S12       30.01F HX  98           
STARKVILLE     FAIR      90  73  58 SW6       30.01F HX  98           
TUPELO         PTSUNNY   91  71  51 S14       29.99F HX  97           
$$

MSZ040-058-232000-
CENTRAL MISSISSIPPI
  
CITY           SKY/WX    TMP DP  RH WIND       PRES   REMARKS
JACKSON INTL   PTSUNNY   92  72  51 S14       29.99F HX  99           
JACKSON HAWKNS FAIR      93  74  53 SW14G22   30.00S HX 103           
MADISON        FAIR      90  73  58 S10G16    29.99F HX  98           
MERIDIAN KEY   FAIR      94  72  48 S13G21    30.01F HX 102           
MERIDIAN NAS   FAIR      93  69  45 SW13G22   30.01F HX  98           
RAYMOND          N/A     93  77  59 SW12G21   29.98F HX 107           
VICKSBURG VKS  PTCLDY    91  77  62 SW10      29.97F HX 105           
$$

MSZ059>079-232000-
SOUTH MISSISSIPPI
  
CITY           SKY/WX    TMP DP  RH WIND       PRES   REMARKS
HATTIESBURG    FAIR      94  72  48 SW16      30.02F HX 102           
LAUREL         PTCLDY    93  71  48 S13G20    30.01F HX  99           
MCCOMB         FAIR      90  75  61 S12       30.00F HX 100           
NATCHEZ        FAIR      91  76  61 S10       29.98F HX 103           
PINE BELT      FAIR      93  73  52 S12G18    30.03F HX 102           
$$

MSZ080>082-232000-
COASTAL MISSISSIPPI
  
CITY           SKY/WX    TMP DP  RH WIND       PRES   REMARKS
BAY ST LOUIS   MOSUNNY   90  75  62 S13       30.01F HX 100           
BILOXI         FAIR      91  79  68 S12       30.04S HX 106           
PASCAGOULA     FAIR      92  76  59 S9        30.05F HX 104           
GULFPORT       PTSUNNY   90  77  65 S13G21    30.02F HX 103           
$$

LAZ007>009-015>016-023>026-232000-
NORTHEAST LOUISIANA
  
CITY           SKY/WX    TMP DP  RH WIND       PRES   REMARKS
BASTROP        FAIR      91  75  59 S8        29.95F HX 101           
TALLULAH/VBURG FAIR      90  76  63 S10       29.97F HX 101           
VIDALIA        FAIR      92  76  59 S13       29.96F HX 105           
$$